GFSNE_prec_prec_273.txt.gz
QPF
0.00 0.00 0.00 0.00 0.00 0.00 0.00 0.00 0.00 0.00 0.00 0.00 0.00 0.00 0.00 0.00 0.00 0.00 0.00 0.00 0.00 0.01 0.01 0.00 0.00 0.00 0.00 0.00 0.00 0.00 0.00 0.01 0.00 0.02 0.07 0.02 0.00 0.00
0.00 0.00 0.00 0.00 0.00 0.00 0.00 0.00 0.00 0.00 0.00 0.00 0.00 0.00 0.00 0.00 0.00 0.00 0.00 0.01 0.01 0.01 0.01 0.01 0.00 0.00 0.00 0.00 0.00 0.00 0.01 0.02 0.06 0.11 0.03 0.00 0.00 0.00
0.00 0.00 0.00 0.00 0.00 0.00 0.00 0.00 0.00 0.00 0.00 0.00 0.00 0.00 0.00 0.00 0.00 0.00 0.00 0.00 0.00 0.01 0.01 0.01 0.01 0.01 0.00 0.00 0.00 0.00 0.02 0.05 0.07 0.02 0.00 0.00 0.00 0.00
0.00 0.00 0.00 0.00 0.00 0.00 0.00 0.00 0.00 0.00 0.00 0.00 0.00 0.00 0.00 0.00 0.00 0.00 0.00 0.00 0.00 0.03 0.01 0.01 0.01 0.00 0.00 0.00 0.00 0.01 0.02 0.01 0.00 0.00 0.00 0.00 0.00 0.00
0.00 0.00 0.00 0.00 0.00 0.00 0.00 0.00 0.00 0.00 0.00 0.00 0.00 0.00 0.00 0.00 0.00 0.00 0.00 0.00 0.00 0.05 0.01 0.01 0.01 0.00 0.00 0.00 0.00 0.01 0.01 0.01 0.00 0.00 0.00 0.00 0.00 0.00
0.00 0.00 0.00 0.00 0.00 0.00 0.00 0.00 0.00 0.00 0.00 0.00 0.00 0.00 0.00 0.00 0.00 0.00 0.00 0.00 0.00 0.00 0.01 0.01 0.01 0.01 0.01 0.00 0.01 0.01 0.01 0.00 0.00 0.00 0.00 0.00 0.00 0.00
0.00 0.00 0.00 0.00 0.00 0.00 0.00 0.00 0.00 0.00 0.00 0.00 0.00 0.00 0.00 0.00 0.00 0.00 0.00 0.00 0.00 0.00 0.00 0.00 0.01 0.00 0.01 0.01 0.01 0.01 0.00 0.00 0.00 0.00 0.00 0.00 0.00 0.00
0.01 0.00 0.00 0.00 0.00 0.00 0.00 0.00 0.00 0.00 0.00 0.00 0.00 0.00 0.00 0.00 0.00 0.00 0.00 0.00 0.00 0.01 0.01 0.00 0.01 0.01 0.02 0.01 0.01 0.01 0.01 0.00 0.00 0.00 0.00 0.00 0.00 0.00
0.05 0.02 0.01 0.00 0.00 0.00 0.00 0.00 0.00 0.00 0.01 0.01 0.00 0.00 0.00 0.02 0.02 0.01 0.01 0.02 0.00 0.03 0.02 0.00 0.01 0.01 0.02 0.03 0.06 0.02 0.01 0.00 0.00 0.00 0.00 0.00 0.00 0.00
0.13 0.08 0.03 0.02 0.01 0.01 0.00 0.00 0.00 0.00 0.00 0.00 0.00 0.00 0.04 0.04 0.04 0.07 0.04 0.01 0.01 0.01 0.01 0.00 0.02 0.05 0.06 0.06 0.08 0.04 0.02 0.00 0.00 0.00 0.00 0.00 0.00 0.00
0.48 0.29 0.12 0.05 0.06 0.06 0.03 0.00 0.01 0.00 0.01 0.02 0.02 0.02 0.00 0.01 0.01 0.01 0.01 0.02 0.01 0.02 0.01 0.01 0.02 0.07 0.06 0.04 0.04 0.06 0.03 0.01 0.00 0.00 0.00 0.00 0.00 0.00
0.62 0.82 0.53 0.16 0.16 0.19 0.14 0.18 0.14 0.03 0.10 0.12 0.12 0.08 0.06 0.03 0.03 0.02 0.00 0.02 0.05 0.04 0.04 0.02 0.04 0.05 0.04 0.02 0.02 0.04 0.04 0.03 0.01 0.01 0.00 0.00 0.00 0.00
0.56 0.58 0.66 0.51 0.27 0.23 0.20 0.16 0.07 0.07 0.05 0.04 0.05 0.04 0.03 0.02 0.01 0.01 0.02 0.04 0.06 0.05 0.02 0.03 0.04 0.04 0.04 0.02 0.01 0.01 0.01 0.03 0.03 0.02 0.00 0.00 0.00 0.00
0.43 0.51 0.73 0.64 0.39 0.39 0.40 0.36 0.30 0.31 0.16 0.07 0.06 0.02 0.01 0.01 0.00 0.01 0.02 0.03 0.02 0.02 0.02 0.03 0.01 0.02 0.03 0.04 0.02 0.02 0.04 0.04 0.02 0.01 0.01 0.00 0.01 0.02
0.54 0.56 0.64 0.64 0.61 0.64 0.43 0.31 0.31 0.32 0.32 0.17 0.07 0.07 0.09 0.11 0.10 0.07 0.06 0.05 0.05 0.04 0.03 0.02 0.02 0.04 0.05 0.04 0.03 0.02 0.05 0.03 0.01 0.01 0.01 0.00 0.02 0.04
0.09 0.18 0.27 0.35 0.40 0.49 0.52 0.48 0.33 0.33 0.39 0.28 0.18 0.17 0.19 0.16 0.10 0.06 0.06 0.06 0.06 0.05 0.03 0.03 0.04 0.03 0.03 0.03 0.03 0.02 0.02 0.01 0.01 0.01 0.01 0.02 0.03 0.02
0.02 0.04 0.08 0.11 0.16 0.26 0.33 0.37 0.52 0.73 0.77 0.79 0.77 0.66 0.49 0.35 0.16 0.10 0.09 0.07 0.06 0.02 0.03 0.03 0.03 0.02 0.04 0.03 0.02 0.02 0.02 0.02 0.02 0.03 0.04 0.05 0.05 0.05
0.00 0.01 0.01 0.03 0.03 0.04 0.06 0.07 0.13 0.21 0.22 0.29 0.45 0.43 0.30 0.21 0.08 0.04 0.04 0.02 0.02 0.02 0.02 0.03 0.04 0.06 0.06 0.03 0.03 0.01 0.01 0.02 0.03 0.05 0.08 0.14 0.20 0.19
0.00 0.00 0.00 0.01 0.02 0.04 0.07 0.06 0.05 0.07 0.06 0.05 0.05 0.06 0.08 0.11 0.14 0.06 0.03 0.02 0.01 0.01 0.01 0.01 0.03 0.04 0.03 0.02 0.02 0.05 0.03 0.03 0.08 0.19 0.27 0.31 0.28 0.21
0.00 0.00 0.00 0.00 0.00 0.00 0.01 0.02 0.03 0.09 0.17 0.17 0.12 0.08 0.05 0.04 0.05 0.04 0.04 0.03 0.02 0.01 0.01 0.01 0.01 0.01 0.02 0.03 0.05 0.07 0.18 0.18 0.28 0.38 0.38 0.32 0.23 0.16
0.00 0.00 0.00 0.00 0.00 0.00 0.00 0.00 0.00 0.00 0.01 0.03 0.04 0.04 0.03 0.03 0.02 0.01 0.02 0.06 0.05 0.02 0.01 0.01 0.01 0.10 0.06 0.08 0.08 0.10 0.24 0.37 0.33 0.30 0.28 0.25 0.22 0.19
0.00 0.00 0.00 0.00 0.00 0.00 0.00 0.00 0.00 0.00 0.00 0.00 0.00 0.00 0.00 0.00 0.00 0.00 0.01 0.02 0.03 0.02 0.02 0.03 0.04 0.08 0.06 0.04 0.06 0.11 0.23 0.34 0.40 0.34 0.24 0.16 0.12 0.10
0.00 0.00 0.00 0.00 0.00 0.00 0.00 0.00 0.00 0.00 0.00 0.00 0.00 0.00 0.00 0.00 0.00 0.00 0.00 0.01 0.03 0.05 0.04 0.04 0.05 0.06 0.07 0.09 0.13 0.22 0.29 0.32 0.31 0.30 0.28 0.19 0.12 0.09

GFSNE_prec_prec_276.txt.gz
QPF
0.00 0.00 0.00 0.00 0.00 0.00 0.00 0.00 0.00 0.00 0.00 0.00 0.00 0.00 0.00 0.00 0.00 0.00 0.00 0.00 0.00 0.00 0.00 0.00 0.00 0.00 0.00 0.00 0.00 0.00 0.00 0.00 0.00 0.00 0.02 0.01 0.00 0.00
0.00 0.00 0.00 0.00 0.00 0.00 0.00 0.00 0.00 0.00 0.00 0.00 0.00 0.00 0.00 0.00 0.00 0.00 0.00 0.00 0.00 0.00 0.00 0.00 0.00 0.00 0.00 0.00 0.00 0.00 0.00 0.00 0.00 0.01 0.00 0.00 0.00 0.00
0.00 0.00 0.00 0.00 0.00 0.00 0.00 0.00 0.00 0.00 0.00 0.00 0.00 0.00 0.00 0.00 0.00 0.00 0.00 0.00 0.00 0.00 0.00 0.00 0.01 0.02 0.01 0.00 0.00 0.00 0.00 0.00 0.00 0.01 0.00 0.00 0.00 0.00
0.00 0.00 0.00 0.00 0.00 0.00 0.00 0.00 0.00 0.00 0.00 0.00 0.00 0.00 0.00 0.00 0.00 0.00 0.00 0.00 0.00 0.00 0.00 0.01 0.02 0.02 0.01 0.00 0.00 0.00 0.00 0.00 0.00 0.00 0.00 0.00 0.00 0.00
0.03 0.02 0.01 0.01 0.00 0.00 0.00 0.00 0.00 0.00 0.00 0.00 0.00 0.00 0.00 0.00 0.00 0.00 0.00 0.00 0.00 0.00 0.00 0.01 0.02 0.01 0.00 0.00 0.00 0.00 0.00 0.00 0.01 0.00 0.00 0.00 0.00 0.00
0.06 0.02 0.00 0.00 0.01 0.00 0.00 0.00 0.00 0.00 0.00 0.00 0.00 0.00 0.00 0.00 0.00 0.00 0.00 0.00 0.00 0.00 0.00 0.01 0.03 0.02 0.01 0.00 0.00 0.00 0.00 0.00 0.00 0.00 0.00 0.00 0.00 0.00
0.14 0.04 0.00 0.00 0.00 0.00 0.00 0.00 0.00 0.00 0.00 0.00 0.00 0.00 0.00 0.00 0.00 0.00 0.00 0.00 0.00 0.00 0.00 0.00 0.01 0.01 0.01 0.00 0.00 0.01 0.00 0.00 0.00 0.00 0.00 0.00 0.00 0.00
0.27 0.09 0.01 0.00 0.00 0.00 0.00 0.01 0.01 0.01 0.00 0.00 0.00 0.00 0.00 0.00 0.00 0.00 0.00 0.00 0.00 0.00 0.00 0.00 0.00 0.00 0.01 0.01 0.01 0.00 0.00 0.00 0.01 0.00 0.00 0.00 0.00 0.00
0.10 0.09 0.09 0.07 0.04 0.04 0.04 0.07 0.09 0.05 0.02 0.01 0.00 0.00 0.00 0.00 0.00 0.00 0.00 0.00 0.00 0.00 0.00 0.00 0.00 0.00 0.01 0.01 0.01 0.02 0.01 0.03 0.03 0.02 0.00 0.00 0.00 0.00
0.32 0.18 0.10 0.10 0.07 0.06 0.08 0.08 0.05 0.04 0.02 0.01 0.00 0.00 0.00 0.00 0.00 0.00 0.00 0.00 0.00 0.00 0.00 0.00 0.00 0.00 0.00 0.00 0.02 0.03 0.03 0.03 0.02 0.02 0.01 0.00 0.00 0.00
0.21 0.51 0.77 0.84 0.70 0.49 0.25 0.11 0.10 0.07 0.04 0.02 0.01 0.01 0.00 0.01 0.04 0.02 0.02 0.03 0.01 0.04 0.07 0.02 0.01 0.00 0.00 0.01 0.02 0.04 0.03 0.03 0.04 0.02 0.02 0.01 0.01 0.00
0.18 0.16 0.45 0.90 1.21 1.04 0.73 0.42 0.18 0.08 0.13 0.09 0.08 0.14 0.16 0.09 0.06 0.04 0.01 0.01 0.01 0.02 0.04 0.03 0.01 0.01 0.01 0.02 0.03 0.02 0.02 0.04 0.04 0.03 0.02 0.01 0.01 0.00
0.13 0.11 0.12 0.43 0.58 0.62 0.65 0.56 0.42 0.32 0.16 0.20 0.21 0.18 0.14 0.09 0.05 0.08 0.04 0.06 0.03 0.03 0.03 0.03 0.03 0.03 0.02 0.01 0.02 0.01 0.01 0.02 0.02 0.01 0.02 0.03 0.03 0.01
0.08 0.17 0.24 0.28 0.28 0.44 0.57 0.56 0.61 0.45 0.28 0.24 0.16 0.15 0.16 0.14 0.12 0.08 0.04 0.02 0.01 0.01 0.01 0.03 0.02 0.02 0.02 0.02 0.01 0.01 0.00 0.01 0.02 0.03 0.03 0.06 0.08 0.03
0.01 0.03 0.07 0.17 0.23 0.26 0.40 0.52 0.87 1.08 0.96 0.76 0.53 0.26 0.17 0.20 0.23 0.23 0.15 0.05 0.03 0.03 0.04 0.05 0.05 0.05 0.04 0.03 0.02 0.01 0.02 0.01 0.00 0.01 0.03 0.04 0.04 0.03
0.00 0.00 0.01 0.05 0.15 0.21 0.40 0.59 0.58 0.57 0.65 0.69 0.70 0.57 0.26 0.20 0.22 0.27 0.31 0.21 0.11 0.09 0.11 0.11 0.09 0.07 0.05 0.05 0.03 0.02 0.01 0.01 0.01 0.01 0.02 0.03 0.02 0.02
0.00 0.00 0.00 0.01 0.03 0.07 0.11 0.21 0.38 0.42 0.40 0.39 0.31 0.31 0.34 0.37 0.44 0.40 0.38 0.40 0.42 0.37 0.24 0.15 0.08 0.05 0.03 0.02 0.02 0.01 0.01 0.01 0.01 0.01 0.02 0.02 0.03 0.03
0.00 0.00 0.00 0.00 0.00 0.00 0.01 0.04 0.09 0.15 0.21 0.23 0.22 0.19 0.19 0.29 0.52 0.55 0.38 0.29 0.34 0.42 0.38 0.26 0.17 0.09 0.07 0.04 0.04 0.01 0.00 0.01 0.00 0.01 0.02 0.02 0.04 0.06
0.00 0.00 0.00 0.00 0.00 0.00 0.00 0.01 0.01 0.01 0.02 0.02 0.04 0.05 0.06 0.06 0.08 0.12 0.13 0.11 0.08 0.06 0.06 0.09 0.10 0.06 0.03 0.01 0.01 0.03 0.01 0.00 0.00 0.02 0.03 0.04 0.04 0.06
0.00 0.00 0.00 0.00 0.00 0.00 0.00 0.01 0.02 0.02 0.02 0.02 0.02 0.02 0.04 0.04 0.05 0.03 0.03 0.03 0.04 0.04 0.06 0.05 0.04 0.03 0.03 0.04 0.04 0.02 0.05 0.02 0.00 0.02 0.04 0.06 0.09 0.10
0.00 0.00 0.00 0.00 0.00 0.00 0.00 0.00 0.00 0.00 0.02 0.02 0.02 0.03 0.05 0.05 0.04 0.04 0.04 0.07 0.06 0.02 0.02 0.01 0.02 0.09 0.05 0.06 0.03 0.01 0.03 0.08 0.04 0.02 0.02 0.05 0.07 0.09
0.00 0.00 0.00 0.00 0.00 0.00 0.00 0.00 0.00 0.00 0.00 0.00 0.00 0.00 0.02 0.04 0.06 0.07 0.06 0.05 0.05 0.04 0.03 0.03 0.02 0.04 0.03 0.03 0.04 0.03 0.03 0.06 0.13 0.11 0.08 0.07 0.06 0.06
0.00 0.00 0.00 0.00 0.00 0.00 0.00 0.00 0.00 0.00 0.00 0.00 0.00 0.00 0.00 0.00 0.00 0.01 0.03 0.05 0.06 0.07 0.05 0.04 0.04 0.03 0.03 0.04 0.08 0.04 0.03 0.06 0.08 0.11 0.15 0.15 0.15 0.11

GFSNE_prec_prec_279.txt.gz
QPF
0.00 0.00 0.00 0.00 0.00 0.00 0.00 0.00 0.00 0.00 0.00 0.00 0.00 0.00 0.00 0.00 0.00 0.00 0.00 0.00 0.00 0.00 0.00 0.00 0.00 0.00 0.00 0.00 0.00 0.00 0.00 0.00 0.00 0.00 0.00 0.00 0.00 0.00
0.00 0.00 0.00 0.00 0.00 0.00 0.00 0.00 0.00 0.00 0.00 0.00 0.00 0.00 0.00 0.00 0.00 0.00 0.00 0.00 0.00 0.00 0.00 0.00 0.00 0.00 0.00 0.00 0.00 0.00 0.00 0.00 0.00 0.00 0.00 0.00 0.00 0.00
0.02 0.00 0.00 0.00 0.00 0.00 0.00 0.00 0.00 0.00 0.00 0.00 0.00 0.00 0.00 0.00 0.00 0.00 0.00 0.00 0.00 0.00 0.00 0.00 0.00 0.01 0.01 0.00 0.00 0.00 0.00 0.00 0.00 0.00 0.00 0.00 0.00 0.00
0.07 0.04 0.00 0.00 0.00 0.00 0.00 0.00 0.00 0.00 0.00 0.00 0.00 0.00 0.00 0.00 0.00 0.00 0.00 0.00 0.00 0.00 0.00 0.00 0.00 0.01 0.00 0.00 0.00 0.00 0.00 0.00 0.00 0.00 0.00 0.00 0.00 0.00
0.19 0.11 0.05 0.01 0.00 0.00 0.00 0.00 0.00 0.01 0.00 0.00 0.00 0.00 0.00 0.00 0.00 0.00 0.00 0.00 0.00 0.00 0.00 0.00 0.00 0.00 0.00 0.00 0.00 0.00 0.00 0.00 0.00 0.00 0.00 0.00 0.00 0.00
0.20 0.22 0.16 0.08 0.03 0.02 0.01 0.01 0.02 0.02 0.02 0.00 0.00 0.00 0.00 0.00 0.00 0.00 0.00 0.00 0.00 0.00 0.00 0.00 0.00 0.00 0.01 0.01 0.00 0.00 0.00 0.00 0.00 0.00 0.00 0.00 0.00 0.00
0.09 0.15 0.25 0.22 0.13 0.08 0.05 0.02 0.02 0.04 0.02 0.02 0.00 0.00 0.00 0.00 0.00 0.00 0.00 0.00 0.00 0.00 0.00 0.00 0.00 0.00 0.01 0.01 0.01 0.00 0.00 0.00 0.00 0.00 0.00 0.00 0.00 0.00
0.05 0.12 0.09 0.14 0.21 0.32 0.26 0.08 0.02 0.03 0.04 0.04 0.02 0.01 0.00 0.00 0.00 0.00 0.00 0.00 0.00 0.00 0.00 0.00 0.00 0.00 0.00 0.00 0.00 0.02 0.01 0.00 0.00 0.00 0.01 0.01 0.01 0.00
0.01 0.02 0.03 0.02 0.01 0.01 0.03 0.06 0.06 0.05 0.06 0.07 0.03 0.02 0.01 0.04 0.04 0.01 0.00 0.01 0.01 0.00 0.00 0.00 0.00 0.00 0.00 0.01 0.02 0.03 0.00 0.00 0.00 0.00 0.01 0.01 0.01 0.00
0.00 0.00 0.01 0.00 0.01 0.01 0.01 0.01 0.02 0.05 0.09 0.12 0.08 0.07 0.07 0.07 0.01 0.01 0.03 0.02 0.01 0.00 0.00 0.00 0.00 0.00 0.01 0.00 0.01 0.00 0.00 0.00 0.00 0.01 0.02 0.02 0.02 0.01
0.00 0.00 0.00 0.02 0.04 0.07 0.21 0.17 0.10 0.07 0.10 0.12 0.12 0.12 0.16 0.10 0.06 0.05 0.02 0.01 0.00 0.00 0.00 0.00 0.00 0.00 0.00 0.00 0.00 0.01 0.00 0.01 0.01 0.01 0.01 0.03 0.03 0.03
0.00 0.00 0.00 0.00 0.01 0.01 0.13 0.44 0.57 0.30 0.15 0.13 0.12 0.15 0.16 0.13 0.16 0.11 0.05 0.02 0.01 0.01 0.00 0.00 0.00 0.00 0.00 0.00 0.01 0.01 0.01 0.02 0.02 0.01 0.03 0.05 0.05 0.04
0.00 0.00 0.00 0.00 0.01 0.01 0.02 0.08 0.16 0.22 0.38 0.29 0.18 0.20 0.21 0.29 0.32 0.28 0.10 0.06 0.02 0.00 0.01 0.01 0.00 0.01 0.01 0.01 0.03 0.04 0.02 0.03 0.02 0.02 0.04 0.04 0.03 0.02
0.00 0.00 0.00 0.00 0.00 0.01 0.01 0.01 0.03 0.04 0.15 0.37 0.38 0.28 0.23 0.26 0.28 0.27 0.25 0.16 0.13 0.08 0.08 0.06 0.02 0.01 0.02 0.03 0.03 0.03 0.03 0.01 0.01 0.00 0.00 0.02 0.04 0.03
0.00 0.00 0.00 0.00 0.00 0.00 0.01 0.01 0.02 0.06 0.11 0.16 0.22 0.31 0.33 0.31 0.27 0.21 0.21 0.19 0.16 0.15 0.14 0.09 0.06 0.03 0.02 0.01 0.02 0.03 0.03 0.02 0.01 0.00 0.00 0.00 0.01 0.02
0.00 0.00 0.00 0.00 0.00 0.00 0.00 0.01 0.00 0.03 0.06 0.08 0.10 0.31 0.54 0.58 0.64 0.63 0.60 0.66 0.72 0.58 0.36 0.20 0.15 0.13 0.10 0.05 0.07 0.05 0.04 0.04 0.01 0.01 0.01 0.01 0.01 0.01
0.00 0.00 0.00 0.00 0.00 0.00 0.00 0.00 0.00 0.01 0.02 0.07 0.13 0.14 0.19 0.22 0.24 0.31 0.36 0.38 0.39 0.45 0.53 0.44 0.35 0.27 0.26 0.22 0.18 0.11 0.09 0.09 0.03 0.02 0.02 0.01 0.01 0.01
0.00 0.00 0.00 0.00 0.00 0.01 0.00 0.00 0.01 0.02 0.02 0.04 0.08 0.14 0.16 0.18 0.19 0.22 0.21 0.16 0.15 0.15 0.15 0.21 0.32 0.43 0.39 0.28 0.15 0.10 0.10 0.08 0.04 0.04 0.03 0.02 0.01 0.01
0.00 0.00 0.00 0.00 0.00 0.00 0.00 0.00 0.00 0.01 0.02 0.02 0.03 0.03 0.05 0.08 0.16 0.16 0.17 0.18 0.15 0.11 0.09 0.08 0.11 0.17 0.19 0.14 0.06 0.04 0.05 0.03 0.02 0.01 0.01 0.01 0.01 0.01
0.00 0.00 0.00 0.00 0.00 0.00 0.00 0.00 0.00 0.01 0.03 0.03 0.02 0.02 0.02 0.05 0.08 0.08 0.06 0.05 0.05 0.05 0.06 0.06 0.05 0.06 0.08 0.09 0.08 0.04 0.04 0.03 0.02 0.03 0.06 0.06 0.05 0.05
0.00 0.00 0.00 0.00 0.00 0.00 0.00 0.00 0.00 0.00 0.02 0.04 0.06 0.04 0.03 0.03 0.04 0.05 0.05 0.09 0.07 0.02 0.02 0.01 0.02 0.08 0.06 0.07 0.04 0.01 0.01 0.06 0.04 0.02 0.02 0.01 0.01 0.02
0.00 0.00 0.00 0.00 0.00 0.00 0.00 0.00 0.00 0.00 0.00 0.00 0.02 0.05 0.06 0.05 0.04 0.04 0.05 0.05 0.05 0.04 0.05 0.05 0.07 0.07 0.03 0.02 0.02 0.02 0.02 0.05 0.09 0.08 0.05 0.02 0.01 0.01
0.00 0.00 0.00 0.00 0.00 0.00 0.00 0.00 0.00 0.00 0.00 0.00 0.00 0.00 0.01 0.02 0.05 0.05 0.05 0.08 0.09 0.09 0.10 0.10 0.10 0.10 0.09 0.09 0.12 0.08 0.07 0.09 0.08 0.07 0.08 0.07 0.06 0.03

GFSNE_prec_prec_282.txt.gz
QPF
0.00 0.00 0.00 0.00 0.00 0.00 0.00 0.00 0.00 0.00 0.00 0.00 0.00 0.00 0.00 0.00 0.00 0.00 0.00 0.00 0.00 0.00 0.00 0.00 0.00 0.00 0.00 0.00 0.00 0.00 0.00 0.00 0.00 0.00 0.00 0.00 0.00 0.00
0.01 0.00 0.00 0.00 0.00 0.00 0.00 0.00 0.00 0.00 0.00 0.00 0.00 0.00 0.00 0.00 0.00 0.00 0.00 0.00 0.00 0.00 0.00 0.00 0.00 0.00 0.00 0.00 0.00 0.00 0.00 0.00 0.00 0.00 0.00 0.00 0.00 0.00
0.05 0.02 0.00 0.00 0.00 0.00 0.00 0.00 0.00 0.00 0.00 0.00 0.00 0.00 0.00 0.00 0.00 0.00 0.00 0.00 0.00 0.00 0.00 0.00 0.00 0.00 0.00 0.00 0.00 0.00 0.00 0.00 0.00 0.00 0.00 0.00 0.00 0.00
0.10 0.13 0.09 0.03 0.01 0.00 0.00 0.00 0.00 0.00 0.00 0.00 0.00 0.00 0.00 0.00 0.00 0.00 0.00 0.00 0.00 0.00 0.00 0.00 0.00 0.00 0.00 0.00 0.00 0.00 0.00 0.00 0.00 0.00 0.00 0.00 0.00 0.00
0.11 0.12 0.19 0.21 0.17 0.05 0.01 0.01 0.00 0.00 0.01 0.01 0.00 0.00 0.00 0.00 0.00 0.00 0.00 0.00 0.00 0.00 0.00 0.00 0.00 0.00 0.00 0.00 0.00 0.00 0.00 0.00 0.00 0.00 0.00 0.00 0.00 0.00
0.12 0.18 0.17 0.18 0.26 0.21 0.15 0.08 0.05 0.04 0.06 0.03 0.00 0.01 0.01 0.00 0.00 0.00 0.00 0.00 0.00 0.00 0.00 0.00 0.00 0.00 0.00 0.00 0.00 0.00 0.00 0.00 0.00 0.00 0.00 0.00 0.00 0.00
0.05 0.08 0.08 0.11 0.10 0.10 0.16 0.19 0.18 0.10 0.08 0.13 0.08 0.01 0.02 0.02 0.00 0.02 0.00 0.00 0.00 0.00 0.00 0.00 0.00 0.00 0.00 0.00 0.00 0.01 0.00 0.00 0.00 0.00 0.00 0.00 0.00 0.00
0.00 0.02 0.06 0.10 0.07 0.09 0.14 0.21 0.21 0.18 0.12 0.06 0.03 0.01 0.01 0.03 0.03 0.03 0.02 0.01 0.00 0.02 0.03 0.01 0.03 0.01 0.00 0.00 0.00 0.00 0.00 0.00 0.00 0.00 0.00 0.00 0.00 0.01
0.00 0.00 0.01 0.01 0.04 0.05 0.06 0.08 0.13 0.14 0.12 0.06 0.02 0.00 0.00 0.01 0.05 0.03 0.02 0.05 0.05 0.06 0.05 0.01 0.00 0.00 0.00 0.00 0.00 0.00 0.00 0.00 0.00 0.00 0.00 0.00 0.00 0.01
0.00 0.00 0.00 0.01 0.05 0.07 0.03 0.02 0.01 0.02 0.02 0.01 0.01 0.00 0.00 0.01 0.01 0.01 0.02 0.04 0.05 0.02 0.00 0.00 0.00 0.00 0.00 0.00 0.00 0.00 0.00 0.00 0.00 0.00 0.00 0.01 0.01 0.01
0.00 0.00 0.01 0.00 0.04 0.08 0.03 0.01 0.01 0.01 0.00 0.00 0.00 0.00 0.00 0.00 0.01 0.02 0.01 0.01 0.01 0.02 0.02 0.00 0.00 0.00 0.00 0.00 0.00 0.00 0.00 0.00 0.00 0.00 0.01 0.02 0.01 0.02
0.00 0.00 0.01 0.01 0.01 0.01 0.01 0.02 0.03 0.01 0.03 0.03 0.01 0.00 0.00 0.01 0.02 0.04 0.02 0.01 0.01 0.01 0.02 0.01 0.01 0.00 0.00 0.00 0.00 0.00 0.00 0.00 0.00 0.01 0.01 0.02 0.03 0.03
0.00 0.00 0.00 0.01 0.00 0.00 0.00 0.00 0.00 0.00 0.01 0.01 0.01 0.01 0.00 0.00 0.00 0.03 0.14 0.12 0.07 0.06 0.05 0.03 0.02 0.01 0.01 0.01 0.00 0.01 0.02 0.04 0.04 0.03 0.02 0.03 0.03 0.02
0.00 0.00 0.00 0.00 0.00 0.00 0.00 0.01 0.01 0.00 0.00 0.00 0.00 0.00 0.00 0.00 0.00 0.00 0.10 0.22 0.19 0.18 0.16 0.10 0.06 0.03 0.03 0.03 0.02 0.06 0.08 0.08 0.09 0.07 0.04 0.04 0.03 0.01
0.00 0.00 0.00 0.00 0.00 0.00 0.00 0.00 0.01 0.01 0.00 0.01 0.00 0.00 0.00 0.01 0.01 0.01 0.01 0.05 0.09 0.09 0.14 0.12 0.08 0.06 0.04 0.04 0.04 0.04 0.06 0.04 0.05 0.05 0.03 0.02 0.01 0.01
0.00 0.00 0.00 0.00 0.00 0.00 0.00 0.00 0.00 0.01 0.02 0.01 0.00 0.01 0.01 0.00 0.01 0.03 0.03 0.02 0.02 0.03 0.09 0.12 0.09 0.06 0.06 0.07 0.05 0.04 0.02 0.04 0.05 0.03 0.03 0.03 0.03 0.02
0.00 0.00 0.00 0.00 0.00 0.00 0.00 0.00 0.00 0.01 0.01 0.01 0.01 0.01 0.01 0.01 0.01 0.04 0.05 0.03 0.03 0.02 0.11 0.27 0.30 0.26 0.26 0.27 0.23 0.16 0.12 0.10 0.14 0.16 0.15 0.11 0.07 0.04
0.00 0.00 0.00 0.00 0.00 0.00 0.01 0.01 0.01 0.02 0.01 0.02 0.03 0.03 0.02 0.01 0.01 0.02 0.04 0.04 0.02 0.02 0.05 0.12 0.24 0.29 0.30 0.28 0.29 0.29 0.33 0.34 0.34 0.31 0.20 0.11 0.06 0.04
0.00 0.00 0.00 0.00 0.00 0.00 0.00 0.01 0.01 0.02 0.03 0.03 0.03 0.02 0.03 0.02 0.03 0.02 0.04 0.04 0.03 0.03 0.03 0.06 0.13 0.18 0.23 0.22 0.14 0.13 0.13 0.13 0.17 0.22 0.19 0.11 0.07 0.04
0.00 0.00 0.00 0.00 0.00 0.00 0.00 0.00 0.00 0.01 0.01 0.02 0.02 0.03 0.03 0.03 0.02 0.02 0.04 0.06 0.06 0.07 0.09 0.08 0.06 0.05 0.04 0.05 0.08 0.09 0.13 0.15 0.12 0.12 0.13 0.15 0.13 0.08
0.00 0.00 0.00 0.00 0.00 0.00 0.00 0.00 0.00 0.00 0.00 0.00 0.01 0.02 0.03 0.03 0.03 0.03 0.06 0.11 0.10 0.07 0.07 0.06 0.05 0.16 0.11 0.09 0.04 0.02 0.06 0.14 0.12 0.13 0.12 0.09 0.05 0.03
0.00 0.00 0.00 0.00 0.00 0.00 0.00 0.00 0.00 0.00 0.00 0.00 0.00 0.01 0.03 0.05 0.06 0.05 0.06 0.06 0.07 0.06 0.05 0.07 0.09 0.10 0.06 0.04 0.04 0.04 0.07 0.13 0.14 0.12 0.11 0.10 0.08 0.05
0.01 0.01 0.01 0.00 0.00 0.00 0.00 0.00 0.00 0.00 0.00 0.00 0.00 0.00 0.01 0.03 0.05 0.08 0.09 0.08 0.07 0.07 0.08 0.08 0.08 0.09 0.08 0.09 0.13 0.06 0.06 0.09 0.12 0.15 0.13 0.13 0.11 0.08

GFSNE_prec_prec_288.txt.gz
QPF
0.94 0.97 0.89 0.77 0.32 0.08 0.03 0.00 0.00 0.00 0.00 0.00 0.00 0.00 0.00 0.00 0.00 0.00 0.00 0.00 0.00 0.00 0.00 0.00 0.00 0.00 0.00 0.00 0.00 0.00 0.00 0.00 0.00 0.00 0.00 0.00 0.00 0.00
0.35 0.43 0.49 0.44 0.41 0.20 0.17 0.12 0.08 0.03 0.00 0.00 0.00 0.00 0.00 0.00 0.00 0.00 0.00 0.00 0.00 0.00 0.00 0.00 0.00 0.00 0.00 0.00 0.00 0.00 0.00 0.00 0.00 0.00 0.00 0.00 0.00 0.00
0.40 0.48 0.33 0.26 0.23 0.16 0.13 0.13 0.13 0.14 0.07 0.02 0.01 0.00 0.00 0.00 0.00 0.00 0.00 0.00 0.00 0.00 0.00 0.00 0.00 0.00 0.00 0.00 0.00 0.00 0.00 0.00 0.00 0.00 0.00 0.00 0.00 0.00
0.04 0.12 0.28 0.39 0.46 0.35 0.19 0.12 0.12 0.11 0.15 0.07 0.01 0.02 0.00 0.00 0.00 0.00 0.00 0.00 0.00 0.00 0.00 0.00 0.00 0.00 0.00 0.00 0.00 0.00 0.00 0.00 0.00 0.00 0.01 0.01 0.00 0.01
0.00 0.02 0.04 0.09 0.21 0.29 0.36 0.25 0.13 0.11 0.17 0.21 0.09 0.07 0.05 0.06 0.08 0.08 0.05 0.02 0.00 0.00 0.00 0.00 0.00 0.00 0.00 0.00 0.00 0.00 0.00 0.00 0.00 0.01 0.01 0.01 0.01 0.01
0.00 0.00 0.02 0.01 0.02 0.08 0.33 0.47 0.55 0.65 0.53 0.40 0.36 0.26 0.24 0.33 0.44 0.34 0.28 0.33 0.17 0.04 0.02 0.01 0.00 0.00 0.00 0.00 0.00 0.00 0.00 0.00 0.01 0.01 0.01 0.01 0.02 0.02
0.00 0.00 0.00 0.01 0.03 0.05 0.10 0.18 0.21 0.18 0.25 0.34 0.44 0.62 0.51 0.27 0.19 0.23 0.29 0.18 0.11 0.07 0.06 0.03 0.01 0.01 0.00 0.00 0.00 0.00 0.00 0.00 0.00 0.00 0.01 0.01 0.01 0.02
0.00 0.00 0.00 0.00 0.00 0.00 0.01 0.04 0.06 0.07 0.04 0.05 0.06 0.05 0.08 0.10 0.10 0.10 0.09 0.08 0.05 0.02 0.02 0.01 0.01 0.00 0.00 0.00 0.00 0.00 0.00 0.00 0.00 0.00 0.00 0.01 0.01 0.01
0.00 0.00 0.00 0.00 0.00 0.00 0.00 0.00 0.01 0.03 0.06 0.08 0.10 0.07 0.04 0.01 0.03 0.05 0.05 0.05 0.03 0.00 0.00 0.00 0.00 0.00 0.00 0.00 0.00 0.00 0.00 0.00 0.00 0.00 0.00 0.00 0.00 0.01
0.00 0.00 0.00 0.00 0.00 0.00 0.00 0.00 0.00 0.00 0.01 0.02 0.03 0.06 0.11 0.12 0.07 0.02 0.01 0.01 0.01 0.00 0.00 0.01 0.00 0.00 0.00 0.00 0.00 0.00 0.00 0.00 0.00 0.00 0.00 0.01 0.02 0.01
0.00 0.00 0.00 0.00 0.00 0.00 0.00 0.00 0.00 0.00 0.00 0.00 0.00 0.01 0.03 0.06 0.08 0.09 0.05 0.04 0.02 0.00 0.00 0.01 0.00 0.00 0.00 0.00 0.00 0.00 0.00 0.00 0.00 0.00 0.00 0.00 0.01 0.02
0.00 0.00 0.00 0.00 0.00 0.00 0.00 0.00 0.00 0.00 0.00 0.00 0.00 0.00 0.00 0.01 0.03 0.05 0.07 0.12 0.05 0.04 0.00 0.00 0.00 0.00 0.00 0.00 0.00 0.00 0.00 0.00 0.00 0.01 0.01 0.01 0.02 0.01
0.00 0.00 0.00 0.00 0.00 0.00 0.00 0.00 0.00 0.00 0.00 0.00 0.00 0.00 0.00 0.00 0.01 0.02 0.02 0.04 0.04 0.04 0.02 0.04 0.01 0.00 0.00 0.00 0.00 0.00 0.00 0.00 0.00 0.00 0.00 0.01 0.01 0.01
0.00 0.00 0.00 0.00 0.00 0.00 0.00 0.00 0.00 0.00 0.00 0.00 0.00 0.00 0.00 0.00 0.00 0.00 0.00 0.01 0.01 0.02 0.02 0.05 0.04 0.03 0.03 0.02 0.01 0.00 0.00 0.00 0.00 0.00 0.00 0.00 0.01 0.01
0.00 0.00 0.00 0.00 0.00 0.00 0.00 0.00 0.00 0.00 0.00 0.00 0.00 0.00 0.00 0.00 0.00 0.00 0.00 0.00 0.01 0.01 0.02 0.03 0.02 0.01 0.01 0.01 0.00 0.00 0.01 0.00 0.00 0.00 0.00 0.00 0.00 0.00
0.00 0.00 0.00 0.00 0.00 0.00 0.00 0.00 0.00 0.00 0.00 0.00 0.00 0.00 0.00 0.00 0.00 0.00 0.00 0.00 0.00 0.00 0.01 0.05 0.07 0.05 0.05 0.02 0.01 0.01 0.01 0.01 0.00 0.00 0.00 0.00 0.00 0.00
0.00 0.00 0.00 0.00 0.00 0.00 0.00 0.00 0.00 0.00 0.00 0.00 0.00 0.00 0.00 0.00 0.00 0.00 0.00 0.00 0.00 0.00 0.00 0.01 0.03 0.07 0.07 0.08 0.08 0.03 0.03 0.03 0.01 0.01 0.01 0.01 0.01 0.00
0.00 0.00 0.00 0.00 0.00 0.00 0.00 0.00 0.00 0.00 0.00 0.00 0.00 0.00 0.00 0.00 0.00 0.00 0.00 0.00 0.00 0.00 0.01 0.01 0.00 0.01 0.03 0.04 0.08 0.04 0.03 0.03 0.01 0.00 0.01 0.02 0.01 0.00
0.00 0.00 0.00 0.00 0.00 0.00 0.00 0.00 0.00 0.00 0.00 0.00 0.00 0.00 0.00 0.00 0.00 0.00 0.00 0.00 0.00 0.00 0.00 0.01 0.02 0.04 0.06 0.04 0.01 0.03 0.03 0.02 0.02 0.01 0.00 0.00 0.00 0.00
0.00 0.00 0.00 0.00 0.00 0.00 0.00 0.00 0.00 0.00 0.00 0.00 0.00 0.00 0.00 0.00 0.00 0.00 0.00 0.00 0.00 0.00 0.00 0.00 0.01 0.06 0.08 0.06 0.04 0.02 0.05 0.04 0.03 0.03 0.01 0.01 0.02 0.04
0.00 0.00 0.00 0.00 0.00 0.00 0.00 0.00 0.00 0.00 0.00 0.00 0.00 0.00 0.00 0.00 0.00 0.00 0.00 0.01 0.01 0.01 0.01 0.03 0.08 0.12 0.11 0.09 0.08 0.05 0.04 0.07 0.08 0.06 0.04 0.01 0.01 0.01
0.00 0.01 0.01 0.00 0.00 0.00 0.00 0.00 0.00 0.00 0.00 0.00 0.00 0.00 0.00 0.00 0.00 0.00 0.00 0.00 0.00 0.00 0.01 0.01 0.02 0.07 0.10 0.12 0.10 0.07 0.07 0.08 0.10 0.12 0.09 0.04 0.02 0.01
0.01 0.01 0.00 0.00 0.00 0.00 0.00 0.00 0.00 0.00 0.00 0.00 0.00 0.00 0.00 0.00 0.00 0.00 0.00 0.00 0.00 0.00 0.00 0.01 0.02 0.05 0.09 0.10 0.09 0.07 0.06 0.05 0.05 0.06 0.06 0.06 0.05 0.03